User: anonymous   Login
Location: Aulnoy
(48.8410°N, 3.0967°E)
Time: 04:53:08
(UTC+00:00)
Language:

Cosmos 540 Rocket - Orbit

View from above orbital plane
View from above orbital plane
View from above satellite
View from above satellite

Ground track
Ground track

The orbit data is extracted from the following two-line orbital elements,

1 06324U 72104B   24170.83159429  .00000340  00000-0  10630-3 0  9994
2 06324  74.0782  42.5439 0009854 243.5093 116.5055 14.44382534704523
Epoch (UTC): 18 June 2024 19:57:29
Eccentricity: 0.0009854
inclination: 74.0782°
perigee height: 737 km
apogee height: 751 km
right ascension of ascending node: 42.5439°
argument of perigee: 243.5093°
revolutions per day: 14.44382534
mean anomaly at epoch: 116.5055°
orbit number at epoch: 70452

The dashed part of the orbit path shows where the satellite is in the earth's shadow,  

DLR